User: anonymous   Login
Location: Santa Barbara
(34.4500°N, 119.7700°W)
Time: 19:50:14
(UTC-07:00)
Language:

Cosmos 1892 Rocket - Orbit

View from above orbital plane
View from above orbital plane
View from above satellite
View from above satellite

Ground track
Ground track

The orbit data is extracted from the following two-line orbital elements,

1 18422U 87088B   15185.89741450  .00000256  00000-0  28792-4 0  9991
2 18422 082.5128 125.1782 0018093 268.4042 149.3902 14.82738272496111
Epoch (UTC): 04 July 2015 21:32:16
Eccentricity: 0.0018093
inclination: 82.5128°
perigee height: 608 km
apogee height: 633 km
right ascension of ascending node: 125.1782°
argument of perigee: 268.4042°
revolutions per day: 14.82738272
mean anomaly at epoch: 149.3902°
orbit number at epoch: 49611

The dashed part of the orbit path shows where the satellite is in the earth's shadow,  

DLR